Starlink 1597

operational
NORAD ID: 46142 Int'l Des: 2020-057 Owner: SPXS Country: US Constellation: starlink
LEOCIRCULARSTARLINK_TYPE

Über Starlink 1597

Beschreibung wird geladen...

Live-Position

3D-Globus wird geladen...

Nächste Überflüge

Höhenverlauf

Altitude vs Time

uPlot chart will show altitude changes over time

Zweizeiliger Elementsatz

1 46142U 20057AB 25354.16146102 .00000222 00000-0 33790-4 0 9993
2 46142 53.0557 313.6353 0001575 84.3423 275.7745 15.06391911294075
Epoch: 20. Dez. 2025 • Age: 10 hours

Aktueller Status

Höhe 547.4 km
Geschwindigkeit 7.59 km/s
Subsatellitenpunkt 21.76°N, 173.4°E
Startdatum 18. Aug. 2020
Alter 5.3 years
Typ internet

Technische Details

Klassifizierung Payload
Masse 260.00 kg
Trockenmasse 248.00 kg
Gesamtmasse 260.00 kg
Länge 0.20 m
Durchmesser 2.80 m
Spannweite 9.00 m
Form Box + pan
Hersteller SPXS
Bus-Typ Starlink
Phasenstatus In Orbit
Besitzer/Staat SPXS/US

Große Konstellationen

Loading constellations...